This is the latest recevied weather packets stored in our database for station/object W3AJR. If no packets are shown the sender has not sent any weather packets the latest 10 day(s).
| Time | Temp. | Humidity | Pressure | Rain* | Wind** | Luminosity | Snow |
|---|---|---|---|---|---|---|---|
| 1777422019 | 15° C | 87% | 1015.4 hPa | 0 mm | - | 0 W/m² | - |
| 1777421714 | 15° C | 87% | 1015.4 hPa | 0 mm | - | 0 W/m² | - |
| 1777421409 | 15° C | 87% | 1015.7 hPa | 0 mm | - | 0 W/m² | - |
| 1777421105 | 15° C | 87% | 1015.7 hPa | 0 mm | - | 0 W/m² | - |
| 1777420802 | 15° C | 87% | 1015.6 hPa | 0 mm | - | 0 W/m² | - |
| 1777420498 | 15° C | 87% | 1015.7 hPa | 0 mm | - | 0 W/m² | - |
| 1777420195 | 15° C | 87% | 1015.6 hPa | 0 mm | - | 3 W/m² | - |
| 1777419890 | 15° C | 87% | 1015.7 hPa | 0 mm | - | 3 W/m² | - |
| 1777419588 | 15.56° C | 87% | 1015.7 hPa | 0 mm | - | 4 W/m² | - |
| 1777419287 | 15.56° C | 87% | 1015.9 hPa | 0 mm | - | 7 W/m² | - |
| 1777418984 | 15.56° C | 86% | 1016.1 hPa | 0 mm | - | 7 W/m² | - |
| 1777418678 | 15.56° C | 85% | 1016.3 hPa | 0 mm | - | 6 W/m² | - |
| 1777418375 | 15.56° C | 85% | 1016.6 hPa | 0 mm | - | 6 W/m² | - |
| 1777418071 | 15.56° C | 85% | 1016.4 hPa | 0 mm | - | 10 W/m² | - |
| 1777417768 | 15.56° C | 85% | 1016.5 hPa | 0 mm | - | 17 W/m² | - |
| 1777417463 | 15.56° C | 85% | 1016.7 hPa | 0 mm | - | 23 W/m² | - |
| 1777417160 | 15.56° C | 85% | 1016.7 hPa | 0 mm | - | 23 W/m² | - |
| 1777416855 | 15.56° C | 85% | 1016.9 hPa | 0 mm | - | 21 W/m² | - |
| 1777416551 | 15.56° C | 84% | 1016.6 hPa | 0 mm | - | 26 W/m² | - |
| 1777416248 | 15.56° C | 84% | 1016.6 hPa | 0 mm | - | 30 W/m² | - |
| 1777415947 | 15.56° C | 84% | 1016.6 hPa | 0 mm | - | 39 W/m² | - |
| 1777415643 | 15.56° C | 84% | 1016.6 hPa | 0 mm | - | 46 W/m² | - |
| 1777415339 | 15.56° C | 84% | 1016.4 hPa | 0 mm | - | 32 W/m² | - |
| 1777415034 | 15.56° C | 83% | 1016.6 hPa | 0 mm | - | 28 W/m² | - |
| 1777414732 | 15.56° C | 84% | 1016.7 hPa | 0 mm | - | 54 W/m² | - |
* Rain latest hour (hover to see other rain measurements)
** Current wind speed in m/s (hover to see current wind gust speed)